Regional Weather Roundup
Issued by NWS

Home | Current Version | Previous Version | Graphics & Text | Print | Product List | Glossary On
Versions: 1 2 3 4 5 6 7 8 9 10 11 12 13 14 15 16 17 18 19 20 21 22 23 24 25 26 27 28 29 30 31 32 33 34 35 36 37 38 39 40 41 42 43 44 45 46 47 48 49 50
000
ASUS43 KLSX 270507
RWRMO

WEATHER SUMMARY FOR MISSOURI
NATIONAL WEATHER SERVICE SPRINGFIELD MO
1100 PM CST FRI DEC 26 2014

NOTE: "FAIR" INDICATES FEW OR NO CLOUDS BELOW 12,000 FEET WITH NO
       SIGNIFICANT WEATHER AND/OR OBSTRUCTIONS TO VISIBILITY.
       CURRENT SKY AND/OR WEATHER CONDITIONS ARE NOT AVAILABLE FOR
       CHILLICOTHE AND FARMINGTON.

MOZ001>031-035>038-043-044-053-054-270600-
...NORTHERN AND WESTERN MISSOURI...

CITY           SKY/WX    TMP DP  RH WIND       PRES   REMARKS
KANSAS CTY INT CLOUDY    37  33  85 W8        30.00R
KANSAS C DTWN  CLOUDY    40  34  79 W7        30.01R
LEE`S SUMMIT   CLOUDY    40  37  89 W6        30.00R
ST JOSEPH      CLOUDY    36  33  89 W7        30.01S
CHILLICOTHE      N/A     43  40  89 CALM      29.99S
KIRKSVILLE     CLOUDY    45  44  97 NE3       29.96S

$$
MOZ066>068-077>081-088>096-101>105-270600-
...SOUTHWEST MISSOURI...

CITY           SKY/WX    TMP DP  RH WIND       PRES   REMARKS
SPRINGFIELD    CLOUDY    49  47  93 S12       30.03R
JOPLIN         CLOUDY    52  51  97 S10       30.02R

$$
MOZ032>034-039>042-045>050-055>058-069>072-270600-
...CENTRAL MISSOURI...

CITY           SKY/WX    TMP DP  RH WIND       PRES   REMARKS
COLUMBIA       CLOUDY    50  47  89 S14       30.00S
JEFFERSON CITY CLOUDY    50  46  86 S9        30.02S
ROLLA          CLOUDY    45  43  93 S13       30.02S
SEDALIA        CLOUDY    53  49  86 S12       29.99S
WHITEMAN AFB   DRIZZLE   51  49  93 S10       29.97S
WARRENSBURG    CLOUDY    43  41  93 W3        29.99R
OSAGE BEACH    CLOUDY    48  45  87 S9        30.02S

$$
MOZ051-052-059>065-270600-
...EAST CENTRAL MISSOURI...

CITY           SKY/WX    TMP DP  RH WIND       PRES   REMARKS
ST LOUIS INTL  LGT RAIN  50  44  80 S7        30.07R
SPIRIT OF STL  LGT RAIN  48  45  89 CALM      30.05S FOG
ST CHARLES     LGT RAIN  48  46  93 S7        30.06R FOG

$$
MOZ072>076-082>087-097>100-106>115-270600-
...SOUTH CENTRAL AND SOUTHEAST MISSOURI...

CITY           SKY/WX    TMP DP  RH WIND       PRES   REMARKS
CAPE GIRARDEAU CLOUDY    49  40  71 SE10      30.14S
POPLAR BLUFF   CLOUDY    47  42  83 SE6       30.12S
WEST PLAINS    CLOUDY    47  44  90 S8        30.08S

$$


USA.gov is the U.S. government's official web portal to all federal, state and local government web resources and services.